Regional Weather Roundup
Issued by NWS Sioux Falls, SD

Home | Current Version | Previous Version | Graphics & Text | Print | Product List | Glossary On
Versions: 1 2 3 4 5 6 7 8 9 10 11 12 13 14 15 16 17 18 19 20 21 22 23 24 25 26 27 28 29 30 31 32 33 34 35 36 37 38 39 40 41 42 43 44 45 46 47 48 49 50
000
ASUS43 KFSD 261210
RWRFSD

WEATHER ROUNDUP FOR SE SOUTH DAKOTA/SW MINNESOTA/NW IOWA
NATIONAL WEATHER SERVICE SIOUX FALLS SD
600 AM CST THU FEB 26 2015

NOTE: "FAIR" INDICATES FEW OR NO CLOUDS BELOW 12,000 FEET WITH NO
SIGNIFICANT WEATHER AND OR OBSTRUCTIONS TO VISIBILITY.


SDZ038>040-050-052>070-261300-
SOUTHEAST SOUTH DAKOTA

CITY           SKY/WX    TMP DP  RH WIND       PRES   REMARKS
CHAMBERLAIN    CLEAR     -3  -9  77 NW10      30.49R WCI -20
6HR MIN TEMP:  -3; 6HR MAX TEMP:   2;

HURON          CLEAR    -15 -20  78 NW10      30.51R WCI -35
6HR MIN TEMP: -16; 6HR MAX TEMP:  -9;

MADISON        FAIR     -13 -17  84 NW9       30.41R WCI -31
MITCHELL       CLEAR     -6 -11  79 NW10      30.52R WCI -24
6HR MIN TEMP:  -6; 6HR MAX TEMP:   0;

SIOUX FALLS    CLEAR     -9 -14  78 NW7       30.43R WCI -24
6HR MIN TEMP:  -9; 6HR MAX TEMP:  -1;

WINNER         CLOUDY     0  -9  65 N10       30.46S WCI -16
YANKTON        CLEAR     -2  -9  71 NW12      30.49R WCI -20
$$

MNZ071-072-080-081-089-090-097-098-261300-
SOUTHWEST MINNESOTA

CITY           SKY/WX    TMP DP  RH WIND       PRES   REMARKS
FAIRMONT       CLEAR     -6 -11  77 NW13      30.35R WCI -25
JACKSON        CLOUDY    -6 -13  71 NW15G22   30.36R WCI -27
LUVERNE        CLEAR     -6 -13  71 NW5       30.43R WCI -17
MARSHALL       FAIR      -8 -15  71 N10       30.44R WCI -26
6HR MIN TEMP:  -9; 6HR MAX TEMP:  -2;

MONTEVIDEO     CLEAR    -11 -17  77 N9        30.46R WCI -29
PIPESTONE      CLEAR     -8 -15  71 NW8       30.37R WCI -23
REDWOOD FALLS  CLEAR     -8 -13  78 NW9       30.43R WCI -25
TRACY          CLEAR     -8 -12  79 NW12      30.40S HAZE    WCI -27
WINDOM         CLEAR     -8 -13  77 NW17      30.37R WCI -31
WORTHINGTON    CLEAR     21 -17  18 N16       30.36S WCI   7
$$

IAZ001>003-012>014-020>022-031-032-NEZ013-014-SDZ071-261300-
NORTHWEST IOWA

CITY           SKY/WX    TMP DP  RH WIND       PRES   REMARKS
CHEROKEE       CLEAR     -6 -12  78 N9        30.41R WCI -23
DENISON        PTCLDY    -4 -11  71 N12       30.38R WCI -22
ESTHERVILLE    CLEAR     -8 -13  78 NW15      30.36R WCI -30
LE MARS        PTCLDY    -6  -9  84 NW7       30.46R WCI -20
ORANGE CITY    CLEAR     -6 -11  77 N12       30.39R WCI -24
SHELDON        PTCLDY    -9 -15  77 NW8       30.39R WCI -26
SIOUX CITY     CLEAR     -1  -8  72 N13       30.46R WCI -19
6HR MIN TEMP:  -1; 6HR MAX TEMP:   6;

SPENCER        MOCLDY    -5 -12  72 N17       30.38R WCI -27
6HR MIN TEMP:  -5; 6HR MAX TEMP:   2;

STORM LAKE     CLOUDY    -6 -13  71 N13       30.37R WCI -25
$$

ABBREVIATIONS USED IN REMARKS
   TC - TEMPERATURE IN CELSIUS
  WCI - WIND CHILL INDEX
   HX - HEAT INDEX
  VSB - VISIBILITY




USA.gov is the U.S. government's official web portal to all federal, state and local government web resources and services.